Flag for Norway Weather past 2 weeks in Farsund, Norway

Now
42 °F

Rain. Overcast.


Feels Like: 35 °F
Forecast: 34 / 40 °F
Wind: 16 mph from Southwest

Location: Lista Fyr

Current Time: Jan 28, 2015 at 11:06:32 AM

Latest Report: Jan 28, 2015 at 10:00 AM


Visibility: 1 mi

Pressure: 29.18 "Hg

Humidity: 93%

Dew point: 41 °F

Location of FarsundLocation

Historic Weather in Farsund — Graph

°F

Farsund temperature yesterday

Maximum temperature yesterday: 44 °F (at 9:00 PM)
Minimum temperature yesterday: 39 °F (at 6:00 AM)
Average temperature yesterday: 41 °F

Past Weeks' High & Low Weather Summary

 TemperatureHumidityPressure
High46 °F (Jan 15, 1:00 PM)96% (Jan 26, 2:00 AM)30.25 "Hg (Jan 26, 2:00 AM)
Low25 °F (Jan 22, 8:00 PM)55% (Jan 17, 12:00 AM)28.73 "Hg (Jan 16, 3:00 AM)
Average38 °F80%29.70 "Hg
* Reported Jan 13 9:00 AM — Jan 28 9:00 AM, Farsund, Weather by CustomWeather, © 2014

Note: Actual official high and low records may vary slightly from our data, if they occured in-between our weather recording intervals... More about our weather records

Advertising

Farsund weather history for previous 24 hours

 ConditionsComfort  
Time TempWeatherWind HumidityBarometerVisibility
9:00 AM
Jan 28
42 °FQuite cool.12 mph94%29.23 "HgN/A
8:00 AM42 °FQuite cool.12 mph93%29.32 "HgN/A
7:00 AM42 °FLight rain. Overcast.12 mph89%29.38 "Hg9 mi
6:00 AM43 °FQuite cool.10 mph92%29.41 "HgN/A
5:00 AM43 °FQuite cool.12 mph92%29.47 "HgN/A
4:00 AM43 °FQuite cool.10 mph94%29.54 "HgN/A
3:00 AM43 °FQuite cool.10 mph94%29.59 "HgN/A
2:00 AM43 °FQuite cool.10 mph94%29.64 "HgN/A
1:00 AM43 °FQuite cool.13 mph95%29.68 "HgN/A
12:00 AM43 °FQuite cool.9 mph96%29.73 "HgN/A
11:00 PM
Jan 27
43 °FQuite cool.9 mph96%29.77 "HgN/A
10:00 PM43 °FQuite cool.9 mph96%29.80 "HgN/A
9:00 PM44 °FQuite cool.9 mph96%29.83 "HgN/A
8:00 PM43 °FQuite cool.9 mph96%29.85 "HgN/A
7:00 PM43 °FOvercast.10 mph94%29.87 "Hg12 mi
6:00 PM43 °FQuite cool.12 mph94%29.88 "HgN/A
5:00 PM43 °FQuite cool.9 mph93%29.90 "HgN/A
4:00 PM43 °FQuite cool.7 mph90%29.91 "HgN/A
1:00 PM42 °FScattered clouds.5 mph80%29.95 "Hg12 mi
12:00 PM41 °FQuite cool.3 mph79%29.96 "HgN/A
11:00 AM41 °FQuite cool.5 mph81%29.97 "HgN/A
Weather by CustomWeather, © 2014

See weather overviewHow to use our weather pages